Location: ?????
(31.8092°N, 35.2590°E)
Time: 11:52:35
(UTC+00:00)

Lacrosse 5 - Visible Passes

Search period start: 23 October 2021 00:00
Search period end: 02 November 2021 00:00
Orbit: 714 x 724 km, 57.0° (Epoch: 28 August)

Date Brightness Start Highest point End Pass type
(mag) Time Alt. Az. Time Alt. Az. Time Alt. Az.
23 Oct 3.5 02:08:48 11° NNW 02:13:10 31° NE 02:17:39 10° ESE visible
24 Oct 4.1 01:18:17 16° NNE 01:19:41 18° NE 01:23:08 10° E visible
24 Oct 1.9 02:58:01 10° NW 03:03:03 68° SW 03:08:04 10° SSE visible
24 Oct 4.2 17:21:01 10° SSW 17:21:44 14° SSW 17:21:44 14° SSW visible
25 Oct 2.3 02:07:08 26° NNW 02:09:55 60° NE 02:14:54 10° SE visible
25 Oct 3.1 16:28:43 10° S 16:31:38 25° SSE 16:31:38 25° SSE visible
26 Oct 3.4 01:16:51 31° NE 01:16:51 31° NE 01:21:05 10° ESE visible
26 Oct 2.6 02:56:07 16° WNW 02:59:31 33° WSW 03:04:00 10° S visible
26 Oct 3.6 15:37:48 10° SE 15:40:11 13° ESE 15:41:28 12° E visible
26 Oct 3.0 17:17:31 10° SW 17:20:44 39° WSW 17:20:44 39° WSW visible
27 Oct 1.7 02:05:56 62° W 02:06:31 69° SW 02:11:31 10° SSE visible
27 Oct 1.9 16:24:29 10° SSW 16:29:28 58° SE 16:30:29 48° E visible
27 Oct 4.8 18:08:59 10° W 18:09:45 13° W 18:09:45 13° W visible
28 Oct 3.5 01:15:48 29° ESE 01:15:48 29° ESE 01:18:22 10° SE visible
28 Oct 3.4 02:55:05 15° WSW 02:55:52 16° WSW 02:58:51 10° SSW visible
28 Oct 2.9 15:32:12 10° S 15:36:29 28° ESE 15:40:07 13° ENE visible
28 Oct 3.1 17:14:37 10° WSW 17:19:19 36° NW 17:19:23 36° NW visible
29 Oct 3.3 02:05:00 24° SSW 02:05:00 24° SSW 02:07:28 10° S visible
29 Oct 2.1 16:20:58 10° SW 16:26:02 70° NW 16:28:53 26° NNE visible
29 Oct 4.9 18:07:50 10° WNW 18:08:08 11° NW 18:08:08 11° NW visible
30 Oct 4.5 01:14:54 10° SSE 01:14:54 10° SSE 01:15:00 10° SSE visible
30 Oct 2.0 15:27:57 10° SSW 15:32:56 57° SE 15:37:56 10° NE visible
30 Oct 3.9 17:12:24 10° W 17:16:12 21° NW 17:17:31 19° NNW visible
31 Oct 3.2 16:18:04 10° WSW 16:22:45 36° NW 16:26:47 13° NNE visible
01 Nov 2.2 15:24:25 10° SW 15:29:30 71° NW 15:34:36 10° NNE visible
01 Nov 4.5 17:11:13 10° WNW 17:13:16 12° NNW 17:15:10 10° NNW visible
